TimeEST,TemperatureF,Dew PointF,Humidity,Sea Level PressureIn,VisibilityMPH,Wind Direction,Wind SpeedMPH,Gust SpeedMPH,PrecipitationIn,Events,Conditions,WindDirDegrees,DateUTC
12:56 AM,64.0,48.0,56,30.04,10.0,WSW,6.9,-,N/A,,Mostly Cloudy,240,2012-12-05 05:56:00
1:56 AM,64.0,48.0,56,30.03,10.0,WSW,8.1,16.1,N/A,,Clear,240,2012-12-05 06:56:00
2:56 AM,64.0,46.9,54,30.02,10.0,SW,9.2,17.3,N/A,,Partly Cloudy,230,2012-12-05 07:56:00
3:56 AM,64.0,48.0,56,30.02,10.0,WSW,9.2,16.1,N/A,,Clear,250,2012-12-05 08:56:00
4:56 AM,61.0,46.9,60,30.05,10.0,NW,5.8,-,N/A,,Partly Cloudy,320,2012-12-05 09:56:00
5:56 AM,60.1,45.0,57,30.09,10.0,North,13.8,20.7,N/A,,Mostly Cloudy,360,2012-12-05 10:56:00
6:56 AM,57.0,39.0,51,30.12,10.0,North,13.8,-,0.00,Rain,Light Rain,350,2012-12-05 11:56:00
7:56 AM,55.9,41.0,57,30.16,10.0,NNW,9.2,16.1,0.00,,Mostly Cloudy,340,2012-12-05 12:56:00
9:56 AM,55.0,32.0,42,30.18,10.0,NNW,15.0,23.0,N/A,,Overcast,340,2012-12-05 14:56:00
10:56 AM,57.0,30.9,37,30.19,10.0,NNW,17.3,26.5,N/A,,Overcast,330,2012-12-05 15:56:00
11:56 AM,57.0,30.0,36,30.17,10.0,NNW,10.4,-,N/A,,Mostly Cloudy,340,2012-12-05 16:56:00
12:56 PM,57.9,28.9,33,30.15,10.0,NW,12.7,-,N/A,,Mostly Cloudy,320,2012-12-05 17:56:00
1:56 PM,61.0,28.9,30,30.14,10.0,North,11.5,17.3,N/A,,Scattered Clouds,10,2012-12-05 18:56:00
2:56 PM,61.0,27.0,27,30.14,10.0,North,10.4,-,N/A,,Scattered Clouds,360,2012-12-05 19:56:00
3:56 PM,60.1,28.0,30,30.15,10.0,North,9.2,-,N/A,,Partly Cloudy,360,2012-12-05 20:56:00
4:56 PM,55.9,28.0,34,30.18,10.0,NNE,12.7,-,N/A,,Partly Cloudy,20,2012-12-05 21:56:00
5:56 PM,54.0,27.0,35,30.21,10.0,North,12.7,-,N/A,,Clear,360,2012-12-05 22:56:00
6:56 PM,52.0,27.0,38,30.24,10.0,North,17.3,-,N/A,,Clear,360,2012-12-05 23:56:00
7:56 PM,48.9,28.0,44,30.28,10.0,NNE,15.0,20.7,N/A,,Clear,20,2012-12-06 00:56:00
8:56 PM,46.9,27.0,46,30.29,10.0,North,17.3,21.9,N/A,,Clear,10,2012-12-06 01:56:00
9:56 PM,45.0,26.1,48,30.30,10.0,NNE,8.1,-,N/A,,Clear,20,2012-12-06 02:56:00
10:56 PM,43.0,26.1,51,30.31,10.0,North,13.8,-,N/A,,Clear,10,2012-12-06 03:56:00
11:56 PM,39.9,25.0,55,30.32,10.0,North,8.1,-,N/A,,Clear,10,2012-12-06 04:56:00